logo
App data

Forgotten, Not Lost - A Kinetic Novel

An old farmer lives with his wife - However, he hasn't quite been himself lately. His mind wanders off, he forgets his daily routine and he often brings up things from the past. Forgotten, Not Lost comes from the creators of A More Beautiful World and is a kinetic novel that tackles the theme of dementia and is a visual novel that hopes...
Store | Hub | SteamDB | Site
Developer: Afterthought Studios Publisher: Afterthought Studios
Genre: Casual, Indie, RPG, Simulation
Languages: English, Russian
Tags: Casual (264), Indie (48), Visual Novel (46), Simulation (40), RPG (39), Anime (35), Singleplayer (32), Story Rich (26)
Category: Single-player, Steam Achievements, Steam Trading Cards
Release date: Apr 2, 2016
Price: $1.99
Old userscore: 88% Owners: 20,000 .. 50,000
Followers: 1,071
Playtime total: 04:12 (average) 04:24 (median)

Steam Spy is still in beta, so expect major bugs.

Owners data:

Access restricted.

This feature is only available to users with special access rights. Sorry.

If you want to proceed, you need to register or log in first and then back Steam Spy on Patreon. Look for Indie or Pro pledge.

Don't forget to use the same email as on Steam Spy!

If you've recently backed Steam Spy on Patreon, please note, that it might take around 15 minutes for your access rights to sync. In most cases you'll need to re-login on Steam Spy too.

Audience in 2 weeks:

Access restricted.

This feature is only available to users with special access rights. Sorry.

If you want to proceed, you need to register or log in first and then back Steam Spy on Patreon. Look for Indie or Pro pledge.

Don't forget to use the same email as on Steam Spy!

If you've recently backed Steam Spy on Patreon, please note, that it might take around 15 minutes for your access rights to sync. In most cases you'll need to re-login on Steam Spy too.

Peak daily concurrent players:

CCU data courtesy of SteamDB. Used with permission.

Hourly concurrent players:

Followers over time

Access restricted.

This feature is only available to users with special access rights. Sorry.

If you want to proceed, you need to register or log in first and then back Steam Spy on Patreon. Look for Indie or Pro pledge.

Don't forget to use the same email as on Steam Spy!

If you've recently backed Steam Spy on Patreon, please note, that it might take around 15 minutes for your access rights to sync. In most cases you'll need to re-login on Steam Spy too.

Views for top 50 videos on YouTube for this game:

Games similar to this one:

# Game Release date
Price
Score rank
(Userscore / Metascore)
Owners
Players
Playtime (Median)
1 Sophie's Curse Mar 16, 2016 $4.99N/A (N/A)53,0000%00:00 (00:00)
2 Autumn Sep 23, 2014 $2.99N/A (N/A)122,0000%00:00 (00:00)
3 hackmud Sep 22, 2016 $19.99N/A (N/A)37,0000%00:00 (00:00)
4 King's Guard TD Jun 8, 2016 $2.99N/A (N/A)181,0000%00:00 (00:00)
5 Hyposphere May 5, 2016 $2.99N/A (N/A)275,0000%00:00 (00:00)
6 Reptilian Rebellion Aug 8, 2016 $2.99N/A (N/A)64,0000%00:00 (00:00)
7 One Last Chance Apr 7, 2016 $3.99N/A (N/A)24,0000%00:00 (00:00)
8 Love in the Glen Jun 9, 2016 $5.99N/A (N/A)22,0000%00:00 (00:00)
9 Burst Mar 14, 2016 N/AN/A (N/A)33,0000%00:00 (00:00)
10 Mind Games Mar 4, 2016 $2.99N/A (N/A)12,0000%00:00 (00:00)
11 Night Blights Apr 15, 2016 $6.99N/A (N/A)7,0000%00:00 (00:00)
12 Magma Tsunami Jun 1, 2016 $0.99N/A (N/A)141,0000%00:00 (00:00)
13 Broken Dreams Feb 19, 2016 $0.49N/A (N/A)554,0000%00:00 (00:00)
14 Zipple World Jan 19, 2016 $4.99N/A (N/A)8,0000%00:00 (00:00)
15 Goodnight Butcher Dec 18, 2015 $1.99N/A (N/A)12,0000%00:00 (00:00)
16 SquareCells Dec 7, 2015 $2.99N/A (N/A)65,00025%00:01 (00:00)
17 BAD END Nov 25, 2015 $2.99N/A (N/A)43,0000%00:00 (00:00)
18 The Last NightMary - A Lenda do Cabeça de Cuia Nov 2, 2015 $3.99N/A (N/A)58,0000%00:00 (00:00)
19 Star Sky Oct 23, 2015 $3.99N/A (N/A)17,0000%00:00 (00:00)
20 Lift It Jan 20, 2017 $4.99N/A (N/A)75,0000%00:00 (00:00)
21 12 Labours of Hercules IV: Mother Nature (Platinum Edition) Dec 25, 2015 $2.99N/A (N/A)38,0000%00:00 (00:00)
22 Dance Magic Feb 15, 2016 $9.99N/A (N/A)4,0000%00:00 (00:00)
23 Turbo Pug 3D Sep 20, 2016 $1.99N/A (N/A)348,0000%00:00 (00:00)
24 Dungeon Painter Studio Feb 26, 2017 $14.99N/A (N/A)63,0000%00:00 (00:00)
25 Ninja Stealth 2 Jan 30, 2017 $0.49N/A (N/A)98,0000%00:00 (00:00)
26 Griptape Backbone May 5, 2017 FreeN/A (N/A)17,0000%00:00 (00:00)
27 Winexy Jan 13, 2017 $0.49N/A (N/A)73,0000%00:00 (00:00)
28 iREC Jan 16, 2017 $2.99N/A (N/A)130,0000%00:00 (00:00)
29 Neon Prism Nov 18, 2016 $10.99N/A (N/A)82,0000%00:00 (00:00)
30 The Survey Oct 27, 2016 $4.99N/A (N/A)44,0000%00:00 (00:00)
31 GO AWAY, THERE'S KUMIS OVER THERE! Oct 28, 2016 $0.99N/A (N/A)62,0000%00:00 (00:00)
32 Kombine Oct 14, 2016 $0.99N/A (N/A)38,0000%00:00 (00:00)
33 Archimedes Oct 6, 2016 $1.99N/A (N/A)38,0000%00:00 (00:00)
34 The Deletion Jul 30, 2015 $1.99N/A (N/A)29,0000%00:00 (00:00)
35 Where are my Internets? Dec 16, 2016 $2.99N/A (N/A)46,0000%00:00 (00:00)
36 Football Blitz Jan 4, 2017 N/AN/A (N/A)7,0000%00:00 (00:00)
37 Won't You Be My Laser? Sep 2, 2016 $0.99N/A (N/A)14,0000%00:00 (00:00)
38 Optika Aug 26, 2016 $4.99N/A (N/A)18,0000%00:00 (00:00)
39 Clock Simulator Jul 20, 2016 N/AN/A (N/A)20,0000%00:00 (00:00)
40 ConflictCraft Dec 8, 2016 $1.99N/A (N/A)111,0005.56%04:37 (01:32)
41 12 Labours of Hercules V: Kids of Hellas (Platinum Edition) Jun 17, 2016 $2.99N/A (N/A)28,0000%00:00 (00:00)
42 Totally Unbalanced Jul 29, 2016 FreeN/A (N/A)104,0000%00:00 (00:00)
43 Frog Climbers Oct 6, 2016 $6.99N/A (N/A)23,0000%00:00 (00:00)
44 Rage Runner May 16, 2014 $4.99N/A (N/A)10,0000%00:00 (00:00)
45 Marble Duel: Sphere-Matching Tactical Fantasy Nov 12, 2015 $14.99N/A (N/A)72,0000%00:00 (00:00)
46 The Jackbox Party Pack Nov 26, 2014 $24.99N/A (N/A)295,0000%00:00 (00:00)
47 Vampires: Guide Them to Safety! Oct 22, 2014 $4.99N/A (N/A)7,0000%00:00 (00:00)
48 Sinister City Oct 18, 2014 $0.99N/A (N/A)183,0000%00:00 (00:00)
49 Quantum Rush Champions Dec 4, 2014 $9.99N/A (N/A)31,0000%00:00 (00:00)
50 A Good Snowman Is Hard To Build Feb 25, 2015 $9.99N/A (N/A)1,0000%00:00 (00:00)
51 Bloop Reloaded Feb 6, 2015 FreeN/A (N/A)173,0000%00:00 (00:00)
52 GamersGoMakers Aug 8, 2014 $8.99N/A (N/A)27,0000%00:00 (00:00)
53 Wildlife Park 2 - Dino World Mar 30, 2012 $3.99N/A (N/A)38,0000%00:00 (00:00)
54 European Ship Simulator Nov 4, 2016 $19.99N/A (N/A)110,0000%00:00 (00:00)
55 12 Labours of Hercules Mar 23, 2015 $2.99N/A (N/A)183,0000%00:00 (00:00)
56 On Rusty Trails Jun 13, 2016 $12.99N/A (N/A/77%)20,0000%00:00 (00:00)
57 Tribloos 2 Jan 12, 2013 $4.99N/A (N/A)124,0000%00:00 (00:00)
58 Paranormal State: Poison Spring Nov 26, 2013 $1.99N/A (N/A)59,0000%00:00 (00:00)
59 Grapple Mar 9, 2015 $6.99N/A (N/A)45,0000%00:00 (00:00)
60 Farm for your Life Jun 5, 2013 $9.99N/A (N/A)93,0000%00:00 (00:00)
61 Girls Like Robots Feb 14, 2014 $6.99N/A (N/A)102,0000%00:00 (00:00)
62 Particulars Nov 19, 2014 FreeN/A (N/A/74%)14,0000%00:00 (00:00)
63 Oozi: Earth Adventure Dec 5, 2013 $0.49N/A (N/A/66%)42,0000%00:00 (00:00)
64 Highborn Feb 19, 2013 $1.99N/A (N/A)13,0000%00:00 (00:00)
65 Luxor Evolved Mar 1, 2012 $9.99N/A (N/A)52,0000%00:00 (00:00)
66 Way of Gold and Steel Aug 17, 2015 $1.97N/A (N/A)19,0000%00:00 (00:00)
67 Collisions Jul 28, 2015 $3.99N/A (N/A)47,0000%00:00 (00:00)
68 Robot vs Birds Zombies Jun 1, 2013 $0.99N/A (N/A)670,0000%00:00 (00:00)
69 In Between Aug 21, 2015 $11.99N/A (N/A/68%)82,0000%00:00 (00:00)
70 Alpha Runner Sep 2, 2015 $0.99N/A (N/A)128,0000%00:00 (00:00)
71 Asphyxia Aug 4, 2015 $5.99N/A (N/A)31,0000%00:00 (00:00)
72 Wanda - A Beautiful Apocalypse Jun 3, 2016 $1.99N/A (N/A)184,0000%00:00 (00:00)
73 Job the Leprechaun Jul 31, 2015 $2.99N/A (N/A)45,0000%00:00 (00:00)
74 Star Chronicles: Delta Quadrant Jul 7, 2015 $0.99N/A (N/A)423,0000%00:00 (00:00)
75 Koala Kids Jun 22, 2015 $0.49N/A (N/A)99,0000%00:00 (00:00)
76 Space Drifters 2D Mar 28, 2016 $0.99N/A (N/A)26,0000%00:00 (00:00)
77 Governor of Poker 2 - Premium Edition Oct 11, 2010 $7.99N/A (N/A)27,0000%00:00 (00:00)
78 Power of Love Jul 21, 2015 $0.99N/A (N/A)30,0000%00:00 (00:00)
79 Egg Returns Home May 5, 2015 $0.99N/A (N/A)74,0000%00:00 (00:00)
80 Earthtongue Apr 27, 2015 $4.99N/A (N/A)87,0000%00:00 (00:00)
81 Alter World May 29, 2015 $1.99N/A (N/A)224,0000%00:00 (00:00)
82 Pester Jan 25, 2013 $0.99N/A (N/A)105,0000%00:00 (00:00)
83 Racecraft Mar 4, 2016 FreeN/A (N/A)42,0000%00:00 (00:00)
84 Streets of Chaos Jan 23, 2015 N/AN/A (N/A)126,0000%00:00 (00:00)
85 Pixel Puzzles 2: Birds Feb 20, 2015 $4.99N/A (N/A)211,0000%00:00 (00:00)
86 Bob Was Hungry Aug 19, 2015 $9.99N/A (N/A)61,0000%00:00 (00:00)

Tags over time:

Access restricted.

This feature is only available to users with special access rights. Sorry.

If you want to proceed, you need to register or log in first and then back Steam Spy on Patreon. Look for Indie or Pro pledge.

Don't forget to use the same email as on Steam Spy!

If you've recently backed Steam Spy on Patreon, please note, that it might take around 15 minutes for your access rights to sync. In most cases you'll need to re-login on Steam Spy too.

Owners of this game also own:

Access restricted.

This feature is only available to users with special access rights. Sorry.

If you want to proceed, you need to register or log in first and then back Steam Spy on Patreon. Look for Indie or Pro pledge.

Don't forget to use the same email as on Steam Spy!

If you've recently backed Steam Spy on Patreon, please note, that it might take around 15 minutes for your access rights to sync. In most cases you'll need to re-login on Steam Spy too.

Playtime distribution:

Access restricted.

This feature is only available to users with special access rights. Sorry.

If you want to proceed, you need to register or log in first and then back Steam Spy on Patreon. Look for Indie or Pro pledge.

Don't forget to use the same email as on Steam Spy!

If you've recently backed Steam Spy on Patreon, please note, that it might take around 15 minutes for your access rights to sync. In most cases you'll need to re-login on Steam Spy too.

Playtime (2 weeks):

Access restricted.

This feature is only available to users with special access rights. Sorry.

If you want to proceed, you need to register or log in first and then back Steam Spy on Patreon. Look for Indie or Pro pledge.

Don't forget to use the same email as on Steam Spy!

If you've recently backed Steam Spy on Patreon, please note, that it might take around 15 minutes for your access rights to sync. In most cases you'll need to re-login on Steam Spy too.

User reviews:

Login required.

Please register or log in to see this information.